• In Uzbekistan
  • List of Countries
  • For 7 days
  • Water Temperature
  • Satellite Maps
  • Weather Map
  • Weather Widgets
  • user-avatar
    Login

    Hourly Weather Kabul

    Today, 19 July, Friday

    Time Temperature Precipitation Wind Pressure Humidity
    00:00 +23°C° 0 mm 2 mps 608 mmHg 64%
    01:00 +23°C° 0 mm 1 mps 608 mmHg 68%
    02:00 +22°C° 0 mm 1 mps 607 mmHg 72%
    03:00 +21°C° 0 mm 1 mps 607 mmHg 74%
    04:00 +21°C° 0 mm 1 mps 607 mmHg 76%
    05:00 +20°C° 0 mm 1 mps 607 mmHg 77%
    06:00 +22°C° 0 mm 1 mps 608 mmHg 67%
    07:00 +22°C° 0 mm 0 mps 609 mmHg 57%
    08:00 +24°C° 0 mm 0 mps 610 mmHg 47%
    09:00 +27°C° 0 mm 1 mps 610 mmHg 38%
    10:00 +29°C° 0 mm 1 mps 611 mmHg 28%
    11:00 +31°C° 0 mm 2 mps 611 mmHg 19%
    12:00 +32°C° 0 mm 2 mps 611 mmHg 17%
    13:00 +34°C° 0 mm 2 mps 611 mmHg 15%
    14:00 +36°C° 0 mm 3 mps 611 mmHg 13%
    15:00 +36°C° 0 mm 4 mps 611 mmHg 13%
    16:00 +36°C° 0 mm 4 mps 611 mmHg 13%
    17:00 +36°C° 0 mm 5 mps 611 mmHg 13%
    18:00 +34°C° 0 mm 4 mps 610 mmHg 22%
    19:00 +30°C° 0 mm 4 mps 610 mmHg 30%
    20:00 +28°C° 0 mm 4 mps 609 mmHg 39%
    21:00 +27°C° 0 mm 3 mps 609 mmHg 44%
    22:00 +26°C° 0 mm 2 mps 609 mmHg 50%
    23:00 +24°C° 0 mm 2 mps 609 mmHg 55%

    Tomorrow, 20 July, Saturday

    Time Temperature Precipitation Wind Pressure Humidity
    00:00 +24°C° 0 mm 1 mps 609 mmHg 58%
    01:00 +23°C° 0 mm 1 mps 608 mmHg 61%
    02:00 +22°C° 0 mm 1 mps 608 mmHg 65%
    03:00 +22°C° 0 mm 1 mps 608 mmHg 67%
    04:00 +19°C° 0 mm 0 mps 608 mmHg 70%
    05:00 +18°C° 0 mm 0 mps 607 mmHg 72%
    06:00 +20°C° 0 mm 0 mps 608 mmHg 63%
    07:00 +22°C° 0 mm 0 mps 610 mmHg 54%
    08:00 +26°C° 0 mm 1 mps 611 mmHg 45%
    09:00 +28°C° 0 mm 1 mps 611 mmHg 35%
    10:00 +30°C° 0 mm 1 mps 612 mmHg 26%
    11:00 +32°C° 0 mm 2 mps 612 mmHg 16%
    12:00 +34°C° 0 mm 2 mps 612 mmHg 14%
    13:00 +35°C° 0 mm 2 mps 612 mmHg 12%
    14:00 +36°C° 0 mm 3 mps 613 mmHg 10%
    15:00 +36°C° 0 mm 3 mps 612 mmHg 10%
    16:00 +37°C° 0 mm 3 mps 612 mmHg 10%
    17:00 +37°C° 0 mm 3 mps 612 mmHg 10%
    18:00 +35°C° 0 mm 3 mps 612 mmHg 14%
    19:00 +33°C° 0 mm 3 mps 611 mmHg 19%
    20:00 +30°C° 0 mm 3 mps 611 mmHg 23%
    21:00 +28°C° 0 mm 3 mps 610 mmHg 29%
    22:00 +27°C° 0 mm 2 mps 610 mmHg 36%
    23:00 +25°C° 0 mm 2 mps 610 mmHg 42%

    Day after tomorrow, 21 July, Sunday

    Time Temperature Precipitation Wind Pressure Humidity
    00:00 +24°C° 0 mm 1 mps 609 mmHg 42%
    01:00 +23°C° 0 mm 1 mps 609 mmHg 42%
    02:00 +23°C° 0 mm 1 mps 608 mmHg 42%
    03:00 +22°C° 0 mm 1 mps 608 mmHg 42%
    04:00 +21°C° 0 mm 1 mps 608 mmHg 41%
    05:00 +21°C° 0 mm 1 mps 607 mmHg 40%
    06:00 +23°C° 0 mm 1 mps 609 mmHg 33%
    07:00 +26°C° 0 mm 1 mps 610 mmHg 27%
    08:00 +26°C° 0 mm 0 mps 611 mmHg 21%
    09:00 +30°C° 0 mm 1 mps 611 mmHg 18%
    10:00 +31°C° 0 mm 1 mps 612 mmHg 14%
    11:00 +34°C° 0 mm 2 mps 612 mmHg 11%
    12:00 +35°C° 0 mm 2 mps 612 mmHg 10%
    13:00 +36°C° 0 mm 3 mps 612 mmHg 9%
    14:00 +38°C° 0 mm 4 mps 612 mmHg 8%
    15:00 +39°C° 0 mm 5 mps 612 mmHg 8%
    16:00 +39°C° 0 mm 6 mps 612 mmHg 8%
    17:00 +39°C° 0 mm 7 mps 612 mmHg 8%
    18:00 +35°C° 0 mm 6 mps 611 mmHg 9%
    19:00 +33°C° 0 mm 4 mps 610 mmHg 11%
    20:00 +29°C° 0 mm 3 mps 610 mmHg 13%
    21:00 +28°C° 0 mm 3 mps 610 mmHg 14%
    22:00 +26°C° 0 mm 2 mps 609 mmHg 15%
    23:00 +25°C° 0 mm 2 mps 609 mmHg 17%

    22 July, Monday

    Time Temperature Precipitation Wind Pressure Humidity
    00:00 +24°C° 0 mm 2 mps 609 mmHg 18%
    01:00 +23°C° 0 mm 1 mps 608 mmHg 19%
    02:00 +23°C° 0 mm 1 mps 608 mmHg 20%
    03:00 +22°C° 0 mm 1 mps 608 mmHg 20%
    04:00 +22°C° 0 mm 1 mps 607 mmHg 21%
    05:00 +21°C° 0 mm 1 mps 607 mmHg 21%
    06:00 +24°C° 0 mm 1 mps 609 mmHg 19%
    07:00 +26°C° 0 mm 1 mps 610 mmHg 16%
    08:00 +29°C° 0 mm 1 mps 611 mmHg 13%
    09:00 +30°C° 0 mm 2 mps 611 mmHg 12%
    10:00 +33°C° 0 mm 3 mps 612 mmHg 10%
    11:00 +35°C° 0 mm 3 mps 612 mmHg 9%
    12:00 +36°C° 0 mm 4 mps 612 mmHg 8%
    13:00 +37°C° 0 mm 5 mps 612 mmHg 8%
    14:00 +39°C° 0 mm 7 mps 612 mmHg 7%
    15:00 +38°C° 0 mm 7 mps 611 mmHg 8%
    16:00 +38°C° 0 mm 8 mps 611 mmHg 8%
    17:00 +38°C° 0 mm 8 mps 611 mmHg 9%
    18:00 +34°C° 0 mm 7 mps 610 mmHg 11%
    19:00 +32°C° 0 mm 5 mps 610 mmHg 13%
    20:00 +29°C° 0 mm 4 mps 609 mmHg 15%
    21:00 +27°C° 0 mm 3 mps 609 mmHg 17%
    22:00 +26°C° 0 mm 2 mps 608 mmHg 19%
    23:00 +24°C° 0 mm 2 mps 608 mmHg 21%

    23 July, Tuesday

    Time Temperature Precipitation Wind Pressure Humidity
    00:00 +24°C° 0 mm 2 mps 608 mmHg 23%
    01:00 +23°C° 0 mm 1 mps 607 mmHg 25%
    02:00 +22°C° 0 mm 1 mps 607 mmHg 28%
    03:00 +22°C° 0 mm 1 mps 607 mmHg 29%
    04:00 +21°C° 0 mm 1 mps 607 mmHg 30%
    05:00 +21°C° 0 mm 1 mps 607 mmHg 31%
    06:00 +23°C° 0 mm 1 mps 608 mmHg 27%
    07:00 +25°C° 0 mm 1 mps 609 mmHg 24%
    08:00 +28°C° 0 mm 1 mps 610 mmHg 20%
    09:00 +29°C° 0 mm 1 mps 610 mmHg 18%
    10:00 +31°C° 0 mm 2 mps 610 mmHg 16%
    11:00 +32°C° 0 mm 2 mps 611 mmHg 14%
    12:00 +35°C° 0 mm 2 mps 611 mmHg 13%
    13:00 +36°C° 0 mm 2 mps 611 mmHg 12%
    14:00 +37°C° 0 mm 2 mps 611 mmHg 10%
    15:00 +37°C° 0 mm 3 mps 610 mmHg 10%
    16:00 +37°C° 0 mm 4 mps 610 mmHg 10%
    17:00 +37°C° 0 mm 5 mps 610 mmHg 10%
    18:00 +35°C° 0 mm 4 mps 609 mmHg 13%
    19:00 +33°C° 0 mm 4 mps 609 mmHg 16%
    20:00 +29°C° 0 mm 4 mps 608 mmHg 18%
    21:00 +28°C° 0 mm 3 mps 608 mmHg 20%
    22:00 +27°C° 0 mm 2 mps 608 mmHg 22%
    23:00 +25°C° 0 mm 2 mps 608 mmHg 24%

    24 July, Wednesday

    Time Temperature Precipitation Wind Pressure Humidity
    00:00 +24°C° 0 mm 1 mps 607 mmHg 26%
    01:00 +24°C° 0 mm 1 mps 607 mmHg 27%
    02:00 +23°C° 0 mm 1 mps 606 mmHg 28%
    03:00 +22°C° 0 mm 1 mps 606 mmHg 29%
    04:00 +22°C° 0 mm 1 mps 606 mmHg 30%
    05:00 +21°C° 0 mm 1 mps 606 mmHg 31%
    06:00 +23°C° 0 mm 1 mps 607 mmHg 27%
    07:00 +26°C° 0 mm 1 mps 608 mmHg 23%
    08:00 +28°C° 0 mm 1 mps 609 mmHg 19%
    09:00 +29°C° 0 mm 1 mps 610 mmHg 17%
    10:00 +31°C° 0 mm 1 mps 610 mmHg 15%
    11:00 +34°C° 0 mm 2 mps 610 mmHg 13%
    12:00 +35°C° 0 mm 2 mps 610 mmHg 12%
    13:00 +36°C° 0 mm 2 mps 610 mmHg 10%
    14:00 +37°C° 0 mm 2 mps 610 mmHg 9%
    15:00 +38°C° 0 mm 3 mps 610 mmHg 9%
    16:00 +38°C° 0 mm 4 mps 610 mmHg 9%
    17:00 +39°C° 0 mm 5 mps 610 mmHg 9%
    18:00 +35°C° 0 mm 4 mps 609 mmHg 11%
    19:00 +33°C° 0 mm 4 mps 608 mmHg 13%
    20:00 +29°C° 0 mm 3 mps 608 mmHg 15%
    21:00 +28°C° 0 mm 3 mps 608 mmHg 17%
    22:00 +26°C° 0 mm 2 mps 608 mmHg 18%
    23:00 +25°C° 0 mm 2 mps 607 mmHg 20%
    Show more